Tracking 35334 objects as of 13-Sep-2026
HD Live streaming from Space Station
objects crossing your sky now

OBJECT V

Track OBJECT V now!
10-day predictions


NORAD ID: 67267
Int'l Code: 2025-313V
Launch date: December 28, 2025
Source: (TBD)
Launch site: VOSTOCHNY COSMODROME (VOSTO)
Your satellite tracking list
Your tracking list is empty




NASA's NSSDC Master Catalog

Two Line Element Set (TLE):
1 67267U 25313V   26255.68794506  .00008212  00000-0  32515-3 0  9999
2 67267  97.3875 329.3301 0014559  64.6164 295.6579 15.25590088 39290
Source of the keplerian elements: AFSPC